Theta_e
313 309 311 310 310 310 313 314 317 315 315 317 317 317 317 315 316 314 313 313 314 314 314 314 313 313 312 312 312 312 312 311 312 312 312 312 312 312 311 311 311 311 311 311
310 311 310 309 309 311 313 316 317 317 317 317 317 317 316 315 313 313 313 313 314 315 315 314 313 312 313 313 312 312 312 312 312 312 312 312 312 313 312 312 312 311 310 308
311 312 311 311 310 310 310 311 312 316 317 316 318 318 316 315 314 314 314 314 314 313 313 314 315 313 313 312 312 312 313 312 311 312 311 310 310 308 308 307 310 310 308 307
311 310 310 311 311 310 310 311 312 318 317 318 317 321 318 315 316 313 313 312 313 312 312 312 313 313 313 313 312 312 312 312 311 306 304 303 302 302 302 301 301 300 300 301
311 310 310 311 312 312 312 314 314 314 312 317 318 317 315 315 317 316 314 313 311 310 309 309 310 311 312 311 311 309 310 309 305 304 303 302 301 300 300 299 299 299 299 299
310 309 310 311 312 314 315 315 315 315 315 317 318 314 311 315 317 316 314 311 310 307 305 306 308 307 307 307 306 305 305 303 302 301 300 299 298 298 297 296 296 296 296 296
308 308 309 311 314 314 315 311 314 317 315 318 319 319 314 316 314 313 312 309 307 305 304 302 303 304 305 304 303 301 301 300 299 299 298 297 297 296 295 294 294 294 294 294
308 310 310 311 315 316 317 313 312 321 320 320 321 320 315 314 313 309 309 308 306 304 302 302 303 303 301 301 300 300 299 298 298 298 297 295 294 294 294 294 293 293 293 292
310 310 315 315 314 315 317 318 316 317 313 315 320 315 309 312 311 310 308 307 305 304 303 303 301 300 300 300 299 299 298 298 297 296 294 294 294 293 293 293 292 291 291 290
309 310 313 316 314 313 314 314 316 312 306 311 316 315 309 313 311 309 307 306 304 304 302 299 299 300 300 299 299 298 297 297 294 295 295 294 294 293 293 292 291 291 291 291
310 308 315 315 315 315 313 313 312 314 306 303 309 306 309 313 312 309 306 305 304 300 299 297 299 299 299 299 298 297 296 295 294 295 294 294 293 292 292 291 291 291 291 291
312 312 315 317 315 314 314 312 306 307 318 300 302 304 308 311 310 306 305 303 301 299 298 297 299 299 299 298 297 296 295 294 295 294 294 293 292 292 291 291 291 290 290 289
312 313 316 317 316 313 315 314 310 305 300 306 299 302 306 308 307 305 303 302 300 299 298 298 299 298 297 297 296 295 294 294 294 294 293 292 291 291 291 290 290 289 289 289
312 313 313 313 315 312 313 312 313 308 302 304 301 306 308 308 306 304 303 301 300 300 299 298 297 297 297 296 295 294 294 294 294 293 293 292 290 290 290 289 289 289 289 288
311 315 312 312 311 311 310 311 311 309 307 306 308 313 312 307 306 305 303 302 301 300 299 298 297 296 296 295 295 294 294 293 293 293 292 290 290 290 290 289 289 288 288 287
312 316 313 313 312 311 310 310 311 312 312 314 313 314 313 311 305 305 303 302 301 300 299 298 296 296 295 294 294 294 294 293 293 292 292 290 290 290 290 289 288 288 287 286
312 311 311 318 313 312 311 311 310 311 310 312 315 314 312 309 306 305 303 302 300 299 297 296 295 295 295 294 294 294 294 293 293 292 291 290 289 290 289 290 288 288 287 287
313 312 311 318 314 308 311 310 310 310 311 309 310 310 310 311 308 306 304 302 299 297 297 295 295 295 295 295 295 295 295 294 292 292 291 290 290 290 289 289 288 288 288 287
312 313 315 317 312 313 313 312 311 310 311 309 308 309 310 310 309 307 304 302 298 297 296 296 296 296 295 295 294 296 295 294 293 291 290 290 289 290 289 289 288 288 288 288
310 312 308 312 311 308 310 310 308 309 308 308 311 311 311 310 310 308 304 301 298 298 297 296 296 296 295 295 294 296 296 293 292 291 290 289 289 289 289 288 288 288 288 288
308 310 310 301 310 308 311 310 309 313 306 310 310 311 312 311 310 307 302 300 299 298 297 296 296 296 295 294 294 297 296 293 291 291 290 289 289 288 288 288 288 288 288 288
306 309 310 308 307 305 310 312 311 306 310 310 311 312 313 311 307 303 301 300 299 298 297 296 296 296 296 295 294 296 295 293 291 290 290 289 288 288 288 288 288 288 288 287
311 308 310 309 310 309 310 310 309 310 311 311 312 312 313 313 305 303 301 300 299 298 297 296 296 297 297 295 294 295 295 292 291 291 290 289 288 289 289 289 288 288 287 287
308 307 310 311 311 310 311 311 311 311 311 311 311 311 312 306 303 302 300 300 300 299 297 296 296 297 297 297 295 294 294 293 291 291 291 290 290 290 289 290 290 289 288 289
306 307 309 311 311 311 312 311 311 311 310 311 311 310 305 303 303 302 300 301 300 299 298 297 296 296 297 298 297 295 294 293 291 291 291 291 291 291 291 291 290 290 289 288
306 307 310 313 309 308 310 309 308 309 309 310 310 305 305 304 303 303 302 302 301 299 298 298 298 296 296 298 298 296 293 294 292 291 291 292 291 291 291 291 291 290 290 290
Wind_Speed
5 8 4 5 5 5 8 7 14 6 6 12 8 9 9 5 11 7 6 7 6 5 4 11 13 13 12 11 5 9 15 14 13 18 24 24 25 26 26 25 25 26 24 20
7 6 3 8 7 10 11 13 3 6 12 10 6 8 4 7 3 2 6 6 4 1 2 1 2 6 6 15 16 18 18 19 25 25 26 21 25 25 25 25 26 24 22 22
7 2 3 9 7 7 2 6 5 6 4 6 6 5 5 4 6 2 3 2 2 6 4 6 9 12 12 17 22 25 27 25 21 20 22 22 23 23 24 26 26 26 24 23
7 4 7 6 6 3 4 3 6 13 4 4 2 0 3 5 7 1 2 5 5 6 5 6 10 10 15 19 20 21 20 21 20 18 18 19 21 23 26 26 25 25 24 23
1 4 7 7 2 1 4 1 5 6 4 4 7 4 4 5 4 4 2 2 6 6 7 8 15 15 16 17 15 14 17 18 19 19 21 22 23 25 25 24 23 23 23 23
4 1 3 2 1 3 1 4 6 5 4 3 5 2 4 2 4 3 3 4 6 6 6 6 7 9 12 10 14 16 16 18 20 20 21 21 21 19 18 17 17 18 18 19
5 4 4 3 3 6 7 4 3 4 4 1 4 2 4 5 7 5 4 3 4 6 7 7 10 14 12 14 14 15 17 19 20 19 18 15 12 11 13 18 21 24 24 20
4 2 4 4 3 1 4 5 4 4 4 1 5 0 3 4 7 2 1 5 7 9 6 7 9 10 12 13 15 15 17 20 19 17 14 13 16 18 20 20 19 18 18 19
4 2 3 8 4 2 1 5 2 6 3 3 2 4 7 6 3 5 7 7 9 9 8 7 11 12 13 15 17 17 19 18 14 10 16 20 17 18 18 17 19 20 17 18
4 4 2 2 4 7 5 2 2 4 3 2 1 2 3 4 6 7 8 8 8 7 7 7 12 15 15 17 18 17 16 10 8 20 25 16 16 19 18 17 17 17 18 19
3 3 3 4 5 3 4 3 6 4 3 4 3 5 5 5 7 8 8 8 6 7 7 7 13 17 16 17 18 17 10 8 21 26 14 17 16 16 16 17 19 19 19 18
1 4 4 1 3 3 3 4 3 4 3 2 3 4 4 8 7 5 5 6 7 7 8 9 14 17 17 18 20 15 6 18 27 18 16 14 16 18 17 17 16 17 18 18
1 2 3 3 3 2 4 3 4 4 3 1 4 5 3 1 3 6 6 7 7 8 8 8 14 15 16 20 20 7 12 25 21 14 15 17 20 20 18 17 16 16 17 17
5 3 3 5 3 3 5 4 4 3 4 4 3 2 5 5 6 7 7 7 8 8 8 7 8 13 17 21 17 10 18 24 14 14 13 17 21 20 18 18 16 15 15 15
4 5 5 9 8 10 4 5 9 7 4 5 2 4 6 7 5 6 7 8 8 9 8 8 7 11 18 19 9 15 17 17 14 15 15 18 19 20 19 20 13 14 12 13
2 4 1 5 6 12 9 10 8 9 6 6 5 4 8 8 6 6 8 8 8 8 8 7 8 13 17 17 11 15 14 16 14 15 15 18 20 19 19 15 14 14 13 12
3 6 3 3 8 7 7 6 5 4 4 2 7 4 8 5 7 7 8 8 7 8 8 7 8 13 19 13 14 13 12 12 13 12 17 18 20 19 19 17 12 15 13 12
4 3 2 3 1 4 2 2 1 3 2 3 1 5 7 5 8 7 5 5 7 7 7 7 11 16 18 13 19 14 12 10 11 13 17 19 20 19 18 16 11 14 13 12
5 3 3 3 4 3 1 1 2 2 3 3 4 7 8 10 7 4 5 5 5 6 10 10 12 16 18 16 20 15 12 10 10 14 16 20 21 19 17 17 14 13 17 18
12 5 3 1 4 2 3 1 2 1 3 6 5 8 9 11 5 4 6 6 9 12 13 10 14 18 18 19 22 18 13 12 12 14 17 20 22 21 21 21 16 12 16 18
3 3 4 2 4 2 1 2 2 1 4 6 4 9 11 4 3 5 5 8 9 11 14 12 16 17 16 22 22 21 16 11 11 12 14 21 21 21 20 18 16 15 15 19
3 2 3 2 4 2 1 2 2 5 4 5 8 8 8 8 6 4 6 6 10 13 15 14 17 18 16 22 23 24 18 13 12 11 14 19 22 22 23 21 18 15 16 17
1 1 1 1 2 2 3 2 4 3 4 6 8 12 11 9 2 4 4 7 10 12 13 14 17 18 20 19 22 21 22 14 11 10 13 17 20 22 22 24 19 16 14 13
4 2 1 2 2 3 3 3 4 4 5 9 10 11 9 2 4 4 5 9 10 13 14 16 18 19 22 20 20 20 21 14 11 11 12 13 16 19 20 22 24 19 18 14
1 3 2 2 3 3 1 3 7 13 10 9 10 3 6 5 5 4 5 10 10 12 13 17 19 20 22 23 19 20 20 16 12 10 10 12 13 15 17 16 18 22 21 19
3 2 1 2 0 2 6 7 15 10 6 4 2 6 9 8 6 7 8 11 11 12 13 15 19 23 21 23 24 17 23 20 13 10 9 10 13 14 16 20 21 16 16 15
Wind_Direction
20 62 65 74 60 95 100 93 119 169 181 66 75 70 43 40 73 82 63 67 77 85 105 99 97 87 79 72 89 205 232 250 276 297 283 276 279 280 277 272 271 269 269 259
49 62 99 91 67 87 93 118 92 39 94 90 91 49 16 23 42 146 135 127 151 251 286 106 158 173 215 236 226 233 239 248 266 273 277 283 281 281 279 276 276 268 252 253
105 122 78 85 57 91 74 138 182 138 89 126 103 30 9 342 9 77 56 8 300 209 201 218 231 242 247 237 233 244 258 270 275 276 278 280 277 276 274 275 272 260 264 262
88 352 75 77 84 130 129 190 127 146 128 149 331 139 12 345 336 86 253 241 233 263 276 273 255 257 255 258 263 270 275 272 273 275 272 270 269 269 278 280 277 271 267 261
174 51 57 65 20 210 179 238 184 163 89 86 16 74 283 353 320 315 266 253 250 271 284 290 281 272 279 275 276 278 275 274 280 282 283 284 281 283 285 283 280 277 272 266
97 96 64 348 331 31 321 103 56 63 83 57 346 112 301 294 280 285 271 315 315 307 316 289 280 285 283 284 294 299 292 292 295 296 294 293 294 298 304 309 311 306 295 281
27 1 320 61 35 9 48 58 32 36 28 329 268 13 239 300 318 252 275 335 297 299 294 288 311 322 321 316 314 310 304 303 302 298 297 300 307 311 311 310 306 305 298 288
129 12 10 348 76 249 52 121 142 146 162 194 5 202 276 289 283 99 32 287 291 284 301 309 315 321 320 315 312 304 305 301 307 302 305 312 305 299 305 308 304 298 293 285
130 74 64 70 37 45 290 54 127 108 52 81 2 317 328 355 5 349 301 302 293 308 319 330 325 325 315 311 309 305 310 313 316 328 320 314 302 303 306 304 306 305 301 298
190 120 12 93 21 29 80 102 83 24 106 132 301 239 240 330 299 298 297 307 321 329 337 329 327 318 311 313 315 318 319 321 342 332 324 307 314 313 307 304 301 302 300 297
140 99 323 47 19 287 358 45 56 99 102 145 141 269 216 245 266 271 310 323 335 332 325 311 311 315 318 325 328 323 320 341 335 332 318 319 320 316 310 305 302 302 305 300
3 105 71 95 276 5 74 107 107 118 164 105 131 277 259 246 279 304 337 337 331 323 308 298 311 328 332 334 333 324 329 338 337 331 325 324 324 322 317 314 314 311 306 299
85 68 102 332 295 344 59 96 105 107 82 72 111 261 289 331 45 5 348 327 316 305 314 316 325 337 337 338 337 325 336 340 337 332 337 336 329 325 318 318 314 311 311 306
85 55 169 172 153 128 63 358 169 130 89 173 192 272 330 10 4 341 329 320 314 314 315 314 327 339 338 342 340 346 339 343 345 345 334 341 336 327 322 318 317 315 317 316
89 94 84 77 87 90 80 42 62 67 130 99 201 62 357 329 323 303 289 314 323 321 324 327 338 332 344 343 349 347 344 347 346 350 348 343 337 334 329 321 319 323 324 326
73 124 85 60 89 89 69 28 61 49 36 59 54 20 346 331 304 316 319 317 322 324 326 336 339 341 340 346 348 345 348 354 350 345 341 339 337 340 340 331 335 333 340 341
99 145 118 128 149 77 43 17 42 70 41 97 59 278 319 315 323 315 310 316 319 324 334 341 338 347 348 345 345 346 346 351 346 350 347 339 344 347 342 335 347 357 352 336
111 92 72 133 163 54 247 278 6 52 344 30 277 319 311 305 297 296 325 313 328 336 336 334 342 352 353 343 348 337 338 340 348 348 345 342 340 343 348 352 353 352 353 348
42 82 85 111 76 116 350 313 178 155 343 307 353 337 322 330 318 319 350 348 323 338 346 345 352 355 353 347 347 336 339 350 350 351 354 349 352 348 349 350 352 3 355 4
56 45 85 69 94 159 219 220 225 277 18 313 5 326 322 331 1 288 332 341 356 5 8 356 358 359 360 358 350 343 345 1 5 356 358 358 3 1 2 11 23 15 14 33
20 17 58 59 86 27 157 219 229 115 238 310 315 309 317 305 264 286 348 7 7 9 8 6 4 4 1 5 0 356 354 11 1 0 11 14 14 12 20 25 29 20 22 28
45 52 42 34 82 258 345 109 77 222 291 281 313 308 313 310 316 24 15 357 5 8 8 9 7 6 2 9 10 6 9 5 15 18 18 23 23 26 33 32 25 23 29 43
62 355 32 69 165 245 272 148 232 240 271 302 297 304 310 312 7 25 344 352 8 16 13 10 12 7 7 6 13 9 4 12 19 29 26 38 33 35 37 31 16 15 26 39
8 3 77 41 319 337 332 319 294 294 286 286 292 294 296 109 59 35 1 3 15 24 20 10 13 10 7 5 9 19 10 16 28 34 28 37 36 33 31 30 23 27 33 39
291 339 342 37 6 341 297 276 302 303 302 289 308 341 99 96 61 49 15 18 31 32 24 23 19 12 10 10 6 16 20 22 30 39 32 26 26 27 26 32 36 42 50 56
348 34 87 116 226 284 277 306 299 279 281 293 9 56 74 88 81 61 35 33 39 33 25 21 18 18 14 16 15 13 26 26 31 37 36 27 24 19 21 24 33 51 55 63